Theta_e
304 298 297 300 301 300 299 298 297 301 305 304 305 306 309 314 317 320 321 330 336 337 345 347 347 349 350 354 357 357 357 356 355 353 352 350 349 352 358 357 360 361 358 357
299 295 301 304 301 300 299 298 298 302 305 305 305 305 310 313 317 320 327 324 324 328 330 331 345 354 356 356 357 357 358 358 356 352 352 355 353 355 356 355 354 356 355 353
296 299 303 301 299 297 298 297 298 299 303 305 304 302 306 311 316 319 324 324 322 322 322 327 329 344 351 354 356 356 357 357 360 356 358 358 357 356 348 348 343 345 344 342
297 302 300 299 298 299 295 302 301 300 299 295 305 294 304 308 312 317 320 318 320 321 324 325 332 336 346 351 356 356 358 357 359 361 355 355 352 347 347 340 339 338 339 338
294 297 297 297 298 301 297 303 302 301 299 299 299 297 301 308 308 312 318 317 318 320 322 321 335 341 344 348 351 354 357 357 359 359 358 354 347 344 340 337 337 338 338 335
297 303 300 299 302 302 303 301 301 301 299 290 298 298 299 304 310 313 318 318 320 321 322 324 336 340 344 348 351 353 353 354 355 355 359 355 346 338 334 333 332 331 331 334
296 297 302 302 297 302 300 298 290 289 289 288 299 297 300 307 314 315 317 319 320 320 319 321 330 339 341 345 349 350 349 351 353 355 348 348 345 340 340 338 334 331 330 331
290 288 297 301 298 298 299 298 291 285 284 290 299 294 300 310 313 316 320 321 321 320 321 322 325 337 337 342 345 347 350 350 350 346 343 342 338 334 335 341 335 332 331 331
291 290 299 301 302 302 297 295 302 296 297 292 295 300 306 310 310 312 315 319 320 322 321 322 324 333 334 341 346 348 348 346 343 339 337 336 341 336 335 339 338 333 333 333
297 290 298 299 301 302 300 303 294 296 289 287 293 296 298 304 307 311 312 311 321 323 323 323 326 333 337 341 345 345 343 339 335 333 334 335 333 334 336 335 333 334 334 332
302 296 294 298 295 296 298 295 298 298 296 290 289 294 308 307 310 311 312 314 318 321 320 321 322 332 338 341 341 339 336 331 331 332 333 333 332 334 335 334 332 332 332 329
302 298 290 292 299 302 301 299 299 294 291 296 297 295 306 310 311 313 311 313 315 318 319 320 321 323 336 338 336 334 330 328 330 332 332 332 332 331 332 330 329 329 327 326
303 297 289 290 295 299 297 300 302 302 296 296 293 293 308 310 310 312 312 313 315 317 317 318 319 322 334 334 332 330 328 328 329 329 329 331 330 329 329 328 327 325 323 321
309 300 293 288 291 296 294 298 300 301 293 294 298 298 306 309 309 313 315 317 317 318 319 320 321 331 333 331 329 325 327 326 328 328 327 327 326 326 326 325 324 321 319 317
306 299 297 297 298 298 296 297 299 298 300 297 298 301 306 310 313 314 317 317 321 321 323 325 326 325 322 323 325 322 324 324 325 323 323 323 324 323 321 320 318 317 316 313
308 300 299 295 299 298 295 298 298 299 300 301 302 304 314 315 314 315 318 321 322 320 320 320 321 320 319 319 319 319 319 319 322 320 318 318 317 316 315 314 313 312 311 310
304 299 299 294 297 296 293 297 298 299 301 302 298 305 310 311 314 317 317 316 315 316 318 318 318 318 318 318 318 317 317 319 318 316 313 311 311 309 309 309 308 309 309 310
304 300 299 295 296 287 298 304 302 301 304 309 309 307 308 314 315 315 314 312 309 309 309 311 312 314 315 315 315 315 313 312 311 308 306 306 305 305 306 307 307 307 307 306
308 300 296 296 293 295 301 305 303 300 301 312 309 307 310 312 311 308 312 310 307 304 303 302 303 304 305 306 310 310 308 308 305 303 303 304 304 303 304 304 304 304 302 302
306 300 293 296 292 287 300 306 310 308 299 309 309 310 308 308 301 301 308 307 304 303 300 300 300 301 305 304 305 304 303 302 300 301 302 304 304 302 302 303 301 300 300 301
301 300 297 296 292 296 302 308 312 298 301 308 306 312 311 309 311 308 308 305 303 300 301 300 301 300 302 305 305 301 300 299 300 302 303 302 302 301 302 301 300 300 300 300
299 298 297 299 296 291 309 308 303 312 310 309 308 313 311 309 308 306 306 304 303 301 302 302 301 301 302 304 303 299 296 298 300 301 300 300 299 299 299 300 300 300 300 298
300 303 301 301 303 311 308 315 322 321 313 313 316 313 311 308 306 306 306 306 306 305 304 303 301 300 300 300 300 296 295 297 298 298 297 297 298 296 298 298 298 297 298 296
307 309 305 307 310 311 315 317 319 320 321 320 317 314 313 309 308 307 306 304 303 303 302 302 301 299 298 298 297 295 295 295 295 295 295 296 296 295 295 296 296 295 293 292
306 303 304 308 311 312 314 316 318 320 319 316 316 314 311 310 307 305 303 302 302 301 302 301 300 298 298 297 295 294 293 293 292 293 293 293 294 294 293 294 294 294 294 291
308 305 303 301 311 311 312 316 318 316 315 314 313 310 310 308 305 304 301 301 300 300 300 299 299 298 297 295 293 293 293 292 291 291 291 292 293 293 293 293 294 292 292 291
Wind_Speed
18 16 21 29 25 24 23 25 26 26 26 28 25 23 22 23 20 16 19 17 21 27 17 13 19 20 17 18 17 14 12 14 9 6 4 3 5 6 4 6 6 5 9 8
14 21 22 21 23 26 27 27 26 24 27 26 26 24 23 19 18 18 18 13 21 22 7 11 9 18 19 16 15 14 11 11 6 8 7 5 3 5 7 7 8 7 7 4
18 15 20 20 24 27 29 25 25 28 27 22 23 29 25 20 20 22 9 12 14 17 17 16 28 9 17 17 14 13 12 10 6 5 5 7 5 4 7 7 7 6 7 7
12 15 18 21 25 27 23 25 19 31 22 18 27 18 21 23 21 20 10 12 10 16 7 16 15 10 12 15 13 13 13 11 7 7 6 7 4 4 6 8 7 5 6 6
9 12 16 20 23 25 19 21 26 27 18 24 23 19 21 23 20 17 21 18 19 18 12 23 18 9 8 10 13 10 12 11 6 5 6 5 8 8 8 8 7 6 5 5
11 13 18 26 27 26 21 20 23 22 13 17 20 23 17 20 22 27 17 24 24 22 19 29 16 14 12 11 11 10 10 8 8 4 4 7 10 9 9 8 7 6 5 4
17 23 27 17 10 21 19 18 7 13 5 9 22 19 14 21 28 26 22 29 27 26 25 15 12 16 13 14 13 11 11 11 10 8 11 9 11 11 9 8 5 6 5 5
14 15 19 14 18 18 19 15 9 12 6 15 17 16 24 20 22 20 25 26 23 17 15 20 15 16 16 15 14 13 12 12 11 11 11 10 11 6 5 3 4 5 5 6
13 13 13 15 14 15 16 17 21 13 22 13 14 26 23 18 12 8 17 18 26 21 11 22 21 18 15 15 12 12 13 12 12 12 9 9 5 7 8 6 6 5 6 4
7 12 16 17 14 19 16 13 17 9 12 15 14 19 14 19 15 14 9 12 16 19 17 12 13 17 16 16 13 13 14 13 12 11 9 8 10 9 7 7 7 6 4 4
10 6 16 14 15 17 13 8 9 15 8 10 8 11 13 22 20 17 16 16 26 17 14 12 8 14 18 17 16 15 14 14 10 8 9 9 9 8 7 6 6 5 3 5
11 6 13 20 18 18 17 19 20 2 9 8 9 3 21 17 14 12 11 8 6 4 9 10 9 6 19 18 18 16 15 13 10 9 9 9 8 8 6 6 5 4 4 4
10 7 12 14 17 22 15 16 20 10 10 12 3 3 2 7 11 15 14 12 11 9 12 13 12 11 17 17 15 16 15 13 12 10 10 8 8 8 6 5 4 4 5 6
9 8 12 12 16 12 17 18 20 15 11 6 9 7 5 13 12 11 11 8 7 4 2 6 8 16 19 17 15 14 12 13 11 11 11 9 7 6 4 4 4 5 6 7
2 10 13 14 14 14 16 15 16 13 10 9 8 21 16 12 15 13 12 9 12 8 19 20 20 19 18 10 9 11 9 10 9 13 11 7 5 4 5 5 5 6 6 7
3 5 5 5 17 16 17 15 14 13 10 8 9 16 18 16 8 14 13 15 18 21 12 19 20 20 20 14 17 17 13 13 12 10 8 6 5 4 6 6 6 6 8 8
2 3 5 15 18 18 17 18 15 15 14 8 14 6 13 18 8 19 18 16 18 19 16 18 17 16 14 15 14 14 10 10 8 7 8 8 6 7 7 8 8 8 7 7
5 6 5 8 14 18 11 17 19 19 15 21 23 9 11 12 16 18 16 18 18 17 16 15 12 13 13 13 13 11 11 10 10 8 7 8 8 8 8 8 9 8 8 9
11 8 5 5 8 8 8 4 9 14 6 25 27 24 15 20 20 16 15 17 17 16 14 15 13 11 12 12 10 11 11 12 10 8 8 9 9 10 10 10 10 10 9 8
13 18 5 5 2 7 8 16 18 7 8 3 22 24 23 21 9 9 15 16 15 13 11 11 11 9 5 4 10 12 11 11 8 8 9 9 10 11 9 9 9 7 7 7
11 13 9 8 5 6 12 19 26 13 9 15 13 7 18 10 10 21 17 16 14 13 9 13 10 3 1 2 11 12 11 10 10 8 8 10 10 9 8 8 6 6 7 6
11 9 9 11 6 2 10 20 6 8 11 17 13 15 18 21 23 21 19 19 16 15 13 14 12 8 8 9 10 12 12 10 9 9 9 10 9 8 7 7 6 6 6 6
12 9 7 5 5 11 8 3 11 14 15 17 19 21 22 23 22 21 20 19 17 18 14 13 12 12 12 11 12 13 11 9 9 9 9 9 9 10 9 7 7 6 7 7
9 18 10 7 7 11 11 4 8 14 19 22 20 21 21 23 22 21 17 15 13 12 12 12 12 12 12 13 13 12 10 9 10 9 10 9 8 9 9 8 7 6 7 8
1 11 13 6 12 10 10 10 13 23 21 22 21 21 22 21 21 19 17 15 13 12 11 11 11 11 12 12 12 11 10 10 9 9 8 8 6 7 7 6 5 4 5 4
5 7 5 3 11 3 15 10 19 17 19 20 21 21 20 20 19 19 15 13 12 13 12 12 12 11 11 12 11 10 9 7 6 5 6 6 5 6 5 5 5 3 2 2
Wind_Direction
207 216 211 213 218 226 225 213 219 210 209 214 222 210 216 232 218 205 245 221 152 157 219 190 152 139 146 143 150 161 150 147 144 158 151 185 190 207 102 91 83 59 55 34
208 222 214 219 221 226 234 220 213 218 210 208 214 229 222 233 204 217 217 48 46 19 309 343 181 134 129 132 147 155 149 144 166 159 167 190 208 94 97 75 57 50 73 59
211 211 225 219 222 220 226 227 211 229 203 221 205 226 223 218 218 231 113 58 69 50 350 31 325 169 137 136 147 142 140 154 183 163 106 95 85 108 98 107 75 61 75 61
246 245 213 218 225 213 219 233 253 210 215 216 212 206 221 220 187 237 135 113 107 79 324 276 188 304 138 142 149 155 156 164 187 132 123 139 142 129 98 99 100 77 67 78
213 200 212 221 232 208 222 213 224 246 226 219 212 230 188 218 180 259 129 129 127 132 240 272 164 169 138 145 151 157 149 155 151 151 149 152 93 112 106 106 94 98 83 85
259 210 205 228 221 210 210 222 207 249 198 265 181 246 197 207 180 202 165 151 156 162 191 240 152 156 141 138 138 136 134 138 136 149 171 134 132 118 116 135 156 153 141 97
203 223 209 235 270 220 198 213 181 216 217 194 246 222 224 210 187 190 178 166 174 170 191 194 156 135 147 148 142 148 163 155 161 176 112 112 110 122 145 169 150 146 134 116
191 169 198 197 239 203 180 194 179 196 181 208 224 235 225 189 218 194 186 182 182 179 186 196 178 148 153 144 144 168 151 144 139 121 115 103 108 121 137 92 77 59 100 110
176 170 199 208 235 229 206 218 187 203 177 216 174 238 225 203 201 285 201 185 178 180 163 203 167 165 150 142 151 137 144 136 126 121 123 129 135 107 90 88 93 74 46 120
225 140 183 196 229 257 226 224 209 249 201 218 181 190 217 158 191 218 250 318 169 160 175 197 151 151 147 143 139 133 132 130 125 127 138 115 100 97 94 80 76 72 59 54
0 195 168 205 213 223 228 277 269 222 234 261 206 200 210 154 161 170 164 190 245 179 187 182 155 145 138 136 131 129 129 125 135 142 110 106 108 113 108 86 78 67 43 26
236 210 188 190 222 250 203 198 250 113 282 300 232 6 310 157 135 137 170 220 237 175 173 170 171 194 144 145 136 137 131 133 141 120 114 107 104 91 74 74 66 37 31 8
306 184 161 150 235 244 218 213 215 171 49 218 147 231 202 109 148 157 178 195 205 200 209 210 196 175 144 128 131 128 133 142 129 127 105 86 88 90 82 73 54 22 11 15
282 230 182 186 203 201 211 220 222 205 136 269 165 183 208 122 133 105 116 78 88 117 208 260 226 126 120 126 133 127 134 122 131 127 107 84 74 77 89 63 35 16 12 357
228 280 203 196 200 195 212 224 225 215 254 113 251 158 164 150 153 131 115 143 78 100 63 68 72 75 62 15 114 98 96 95 91 94 93 104 110 77 59 40 19 17 1 2
209 319 303 173 235 178 203 225 226 217 241 114 23 70 83 51 67 123 98 69 70 83 48 84 86 84 92 93 71 72 53 57 58 73 86 81 49 32 38 24 11 11 14 2
220 68 295 228 167 187 202 202 201 210 224 121 128 177 126 141 151 79 82 76 74 74 81 82 81 86 88 89 85 85 82 78 71 64 56 43 16 22 13 15 7 13 360 350
142 142 268 239 174 194 181 192 196 207 176 111 69 112 120 108 93 100 97 98 85 79 62 69 66 72 77 80 76 74 72 65 60 39 29 25 11 12 15 8 14 4 358 4
224 111 276 287 170 0 311 265 233 194 164 107 116 121 106 93 95 83 107 102 99 95 77 58 46 41 46 53 72 74 63 65 52 26 19 15 14 18 10 11 11 14 357 348
249 107 52 303 34 155 264 287 306 221 96 124 130 136 144 146 128 139 120 120 110 98 103 90 59 16 27 46 86 77 63 58 47 23 11 17 22 21 11 20 11 353 339 329
228 182 195 209 146 228 284 286 290 209 109 94 26 180 155 198 105 135 130 121 118 111 122 103 91 53 75 67 70 73 64 53 35 19 16 26 25 6 22 10 350 339 329 325
210 214 221 258 270 148 202 277 266 119 120 105 136 237 106 109 117 129 128 129 138 149 148 136 142 121 63 43 77 71 57 40 32 27 25 26 16 14 2 0 346 331 332 359
246 212 225 311 73 135 280 242 110 149 152 182 142 126 121 124 129 134 137 146 150 156 154 116 108 95 81 68 62 66 50 35 32 35 28 23 23 11 360 349 2 350 1 8
331 350 243 159 159 132 112 104 118 117 102 112 121 131 134 132 136 130 126 121 119 118 114 111 104 92 79 66 63 61 48 35 37 30 29 14 26 8 8 358 13 3 25 0
246 345 330 121 111 128 126 122 115 105 116 126 133 132 134 131 128 125 128 123 116 114 107 96 90 86 82 74 66 51 42 39 36 24 26 15 12 13 12 2 334 342 49 31
193 165 276 353 207 121 121 119 111 120 121 123 122 123 122 125 125 121 116 116 115 111 108 104 99 93 83 77 64 53 44 44 38 28 27 23 6 5 354 343 7 182 260 129